TimeMST,TemperatureF,Dew PointF,Humidity,Sea Level PressureIn,VisibilityMPH,Wind Direction,Wind SpeedMPH,Gust SpeedMPH,PrecipitationIn,Events,Conditions,WindDirDegrees,DateUTC
12:53 AM,39.0,33.1,79,29.94,10.0,Calm,Calm,-,N/A,,Clear,0,2012-11-07 07:53:00
1:53 AM,41.0,34.0,76,29.91,10.0,West,5.8,-,N/A,,Clear,270,2012-11-07 08:53:00
2:53 AM,41.0,33.1,73,29.90,10.0,Calm,Calm,-,N/A,,Clear,0,2012-11-07 09:53:00
3:53 AM,41.0,33.1,73,29.89,10.0,West,3.5,-,N/A,,Clear,270,2012-11-07 10:53:00
4:53 AM,42.1,33.1,70,29.90,10.0,Calm,Calm,-,N/A,,Clear,0,2012-11-07 11:53:00
5:53 AM,42.1,32.0,67,29.89,10.0,NW,4.6,-,N/A,,Clear,310,2012-11-07 12:53:00
6:53 AM,42.1,32.0,67,29.87,10.0,Calm,Calm,-,N/A,,Clear,0,2012-11-07 13:53:00
7:53 AM,41.0,32.0,70,29.88,10.0,Calm,Calm,-,N/A,,Clear,0,2012-11-07 14:53:00
8:53 AM,46.0,34.0,63,29.85,10.0,Calm,Calm,-,N/A,,Clear,0,2012-11-07 15:53:00
9:53 AM,-9999,-9999,N/A,29.76,-9999.0,North,-9999.0,-,N/A,,Unknown,0,2012-11-07 16:53:00
10:53 AM,59.0,35.6,42,29.76,10.0,North,-9999.0,-,N/A,,Scattered Clouds,0,2012-11-07 17:53:00
11:53 AM,59.0,35.6,42,29.74,10.0,North,-9999.0,-,N/A,,Mostly Cloudy,0,2012-11-07 18:53:00
12:53 PM,59.0,35.6,42,29.74,10.0,SW,20.7,-,N/A,,Mostly Cloudy,230,2012-11-07 19:53:00
1:53 PM,55.9,35.1,45,29.84,10.0,WNW,19.6,28.8,N/A,,Partly Cloudy,290,2012-11-07 20:53:00
2:53 PM,53.1,32.0,45,29.90,10.0,WNW,10.4,-,N/A,,Mostly Cloudy,290,2012-11-07 21:53:00
3:53 PM,50.0,28.0,43,29.93,10.0,West,12.7,-,N/A,,Overcast,270,2012-11-07 22:53:00
4:53 PM,46.9,24.1,41,29.96,10.0,West,8.1,-,N/A,,Mostly Cloudy,270,2012-11-07 23:53:00
5:53 PM,43.0,23.0,45,29.99,10.0,West,8.1,-,N/A,,Partly Cloudy,260,2012-11-08 00:53:00
6:53 PM,43.0,23.0,45,30.03,10.0,SW,9.2,-,N/A,,Partly Cloudy,220,2012-11-08 01:53:00
7:53 PM,43.0,21.9,43,30.04,10.0,WSW,11.5,-,N/A,,Mostly Cloudy,250,2012-11-08 02:53:00
8:53 PM,41.0,21.9,47,30.04,10.0,SW,11.5,-,N/A,,Clear,230,2012-11-08 03:53:00
9:53 PM,39.9,21.0,47,29.99,10.0,WSW,10.4,-,N/A,,Clear,240,2012-11-08 04:53:00
10:53 PM,36.0,19.9,52,30.04,10.0,West,4.6,-,N/A,,Clear,260,2012-11-08 05:53:00
11:53 PM,35.1,19.9,54,30.04,10.0,West,3.5,-,N/A,,Clear,260,2012-11-08 06:53:00